TimeMDT,TemperatureF,Dew PointF,Humidity,Sea Level PressureIn,VisibilityMPH,Wind Direction,Wind SpeedMPH,Gust SpeedMPH,PrecipitationIn,Events,Conditions,WindDirDegrees,DateUTC
12:53 AM,64.0,45.0,50,30.06,10.0,NW,3.5,-,N/A,,Clear,320,2013-08-11 06:53:00
1:53 AM,64.9,44.1,47,30.03,10.0,Calm,Calm,-,N/A,,Clear,0,2013-08-11 07:53:00
2:53 AM,61.0,45.0,56,30.04,10.0,Calm,Calm,-,N/A,,Clear,0,2013-08-11 08:53:00
3:53 AM,63.0,45.0,52,30.03,10.0,Calm,Calm,-,N/A,,Clear,0,2013-08-11 09:53:00
4:53 AM,57.0,46.9,69,30.04,10.0,West,5.8,-,N/A,,Clear,270,2013-08-11 10:53:00
5:53 AM,60.1,46.9,62,30.04,10.0,Calm,Calm,-,N/A,,Clear,0,2013-08-11 11:53:00
6:53 AM,59.0,48.0,67,30.04,10.0,Calm,Calm,-,N/A,,Clear,0,2013-08-11 12:53:00
7:53 AM,60.1,46.0,60,30.06,10.0,Calm,Calm,-,N/A,,Clear,0,2013-08-11 13:53:00
8:53 AM,60.1,46.9,62,30.07,10.0,Calm,Calm,-,N/A,,Clear,0,2013-08-11 14:53:00
9:53 AM,63.0,48.0,58,30.07,10.0,Calm,Calm,-,N/A,,Clear,0,2013-08-11 15:53:00
10:53 AM,66.0,50.0,56,30.06,10.0,North,3.5,-,N/A,,Clear,10,2013-08-11 16:53:00
11:53 AM,71.1,46.9,42,30.05,10.0,Calm,Calm,-,N/A,,Clear,0,2013-08-11 17:53:00
12:53 PM,75.0,46.9,37,30.03,10.0,Calm,Calm,-,N/A,,Clear,0,2013-08-11 18:53:00
1:53 PM,79.0,46.0,31,30.01,10.0,Calm,Calm,-,N/A,,Clear,0,2013-08-11 19:53:00
2:53 PM,79.0,46.9,32,30.02,10.0,Variable,5.8,-,N/A,,Clear,0,2013-08-11 20:53:00
3:53 PM,81.0,44.1,27,30.01,10.0,Calm,Calm,-,N/A,,Clear,0,2013-08-11 21:53:00
4:53 PM,82.9,43.0,24,29.99,10.0,ESE,4.6,-,N/A,,Clear,110,2013-08-11 22:53:00
5:53 PM,82.9,45.0,26,29.98,10.0,SE,9.2,-,N/A,,Clear,140,2013-08-11 23:53:00
6:53 PM,80.1,39.9,24,30.02,10.0,SSW,10.4,-,N/A,,Clear,210,2013-08-12 00:53:00
7:53 PM,78.1,37.0,23,30.01,10.0,SW,10.4,25.3,N/A,,Clear,230,2013-08-12 01:53:00
8:53 PM,73.9,39.9,29,30.04,10.0,WNW,11.5,-,N/A,,Partly Cloudy,300,2013-08-12 02:53:00
9:53 PM,72.0,41.0,33,30.06,10.0,WNW,5.8,-,N/A,,Clear,300,2013-08-12 03:53:00
10:53 PM,69.1,42.1,38,30.06,10.0,WSW,4.6,-,N/A,,Clear,240,2013-08-12 04:53:00
11:53 PM,69.1,42.1,38,30.05,10.0,SW,6.9,-,N/A,,Partly Cloudy,220,2013-08-12 05:53:00